This is the latest recevied weather packets stored in our database for station/object KB4MLW-13. If no packets are shown the sender has not sent any weather packets the latest 10 day(s).
| Time | Temp. | Humidity | Pressure | Rain* | Wind** | Luminosity | Snow |
|---|---|---|---|---|---|---|---|
| 1788374579 | 35° C | 52% | 1000.9 hPa | 0 mm | - | - | - |
| 1788374518 | 35° C | 55% | 1001.1 hPa | 0 mm | - | - | - |
| 1788374458 | 35° C | 52% | 1000.9 hPa | 0 mm | - | - | - |
| 1788374370 | 35° C | 52% | 1000.9 hPa | 0 mm | - | - | - |
| 1788374308 | 35° C | 52% | 1001.1 hPa | 0 mm | - | - | - |
| 1788374218 | 35.56° C | 51% | 1001 hPa | 0 mm | - | - | - |
| 1788374129 | 35.56° C | 54% | 1001 hPa | 0 mm | - | - | - |
| 1788374057 | 35.56° C | 52% | 1000.9 hPa | 0 mm | - | - | - |
| 1788373948 | 35° C | 57% | 1001.2 hPa | 0 mm | - | - | - |
| 1788373858 | 35° C | 56% | 1001.2 hPa | 0 mm | - | - | - |
| 1788373768 | 34.44° C | 55% | 1001.1 hPa | 0 mm | - | - | - |
| 1788373678 | 34.44° C | 60% | 1001.1 hPa | 0 mm | - | - | - |
| 1788373618 | 34.44° C | 63% | 1001.1 hPa | 0 mm | - | - | - |
| 1788373558 | 34.44° C | 62% | 1001.1 hPa | 0 mm | - | - | - |
| 1788373498 | 33.89° C | 59% | 1001.2 hPa | 0 mm | - | - | - |
| 1788373409 | 33.89° C | 57% | 1001 hPa | 0 mm | - | - | - |
| 1788373348 | 33.89° C | 58% | 1001 hPa | 0 mm | - | - | - |
| 1788373288 | 33.89° C | 58% | 1001 hPa | 0 mm | - | - | - |
| 1788373228 | 33.89° C | 61% | 1001 hPa | 0 mm | - | - | - |
| 1788373168 | 33.89° C | 60% | 1000.9 hPa | 0 mm | - | - | - |
| 1788373079 | 33.89° C | 59% | 1001.2 hPa | 0 mm | - | - | - |
| 1788372989 | 33.89° C | 57% | 1001.1 hPa | 0 mm | - | - | - |
| 1788372928 | 33.89° C | 59% | 1001 hPa | 0 mm | - | - | - |
| 1788372868 | 33.89° C | 57% | 1001.3 hPa | 0 mm | - | - | - |
| 1788372808 | 33.89° C | 56% | 1001.2 hPa | 0 mm | - | - | - |
* Rain latest hour (hover to see other rain measurements)
** Current wind speed in m/s (hover to see current wind gust speed)